sat.trackr.live / text

‹ back to catalog

STARLINK-3153

NORAD 49431 · 2021-104Z

PAYLOAD ACTIVE UNKNOWN

§ Identity

Operator
Country
US
Launch date
2021-11-13
Launch site
AFETR
Launch vehicle
Mass (kg)
RCS (m²)

Purposes: comms

External: N2YO · Heavens-Above · Gunter

§ Orbital elements

Epoch: 2026-05-25T00:29:31.638912Z

Period
95.44 min
Inclination
53.2157°
Eccentricity
0.0001233
Mean motion
15.08840155 rev/d
Perigee alt
538.9 km
Apogee alt
540.6 km
Semi-major
6,917.9 km
B*
6.6015e-5
RAAN
246.6389°
Arg perigee
80.6541°
Mean anomaly
279.4591°
Rev number
25,015

§ Raw data

STARLINK-31531 49431U 21104Z   26145.02050508  .00000763  00000+0  66015-4 0  99942 49431  53.2157 246.6389 0001233  80.6541 279.4591 15.08840155250154

JSON: /api/v1/satellites/49431 · /tle

For live sub-satellite position, see the globe view (requires WebGL).

§ Visibility from observer

Set your observer location to see the next 7 days of passes ≥ 10°. The values pass through the URL so the page stays shareable.

No JS? Fill the form by hand. The geolocation button needs JavaScript.